Location: Fiennes
(50.8274°N, 1.8253°E)
Time: 23:22:12
(UTC+00:00)

Meteor 1-27 Rocket - Pass Details

Date: 15 May 2026
Orbit: 830 x 907 km, 81.3° (Epoch: 11 June)

Event Time Altitude Azimuth Distance (km) Brightness Sun altitude
Exits shadow 23:25:45 35° 154° (SSE) 1,391 4.3 -19.9°
Maximum altitude 23:27:57 56° 96° (E) 1,045 4.1 -20.0°
Drops below altitude 10° 23:33:33 10° 20° (NNE) 2,524 7.1 -20.0°
Sets 23:36:00 0° 16° (NNE) 3,453 8.2 -20.1°
